Location: Gazon
(48.1318°N, 1.2708°W)
Time: 21:38:48
(UTC+00:00)

CZ-4 R/B - Pass Details

Date: 18 September 2020
Orbit: 530 x 600 km, 97.7° (Epoch: 25 October)

Event Time Altitude Azimuth Distance (km) Brightness Sun altitude
Rises 18:44:08 0° 173° (S) 2,835 4.8 -6.4°
Reaches altitude 10° 18:46:19 10° 177° (S) 1,938 4.0 -6.8°
Maximum altitude 18:50:30 64° 259° (WSW) 670 2.1 -7.5°
Drops below altitude 10° 18:54:42 10° 341° (NNW) 1,942 4.5 -8.1°
Sets 18:56:54 0° 344° (NNW) 2,842 5.4 -8.5°
